Regional Weather Roundup
Issued by NWS

Home | Current Version | Previous Version | Text Only | Print | Product List | Glossary Off
Versions: 1 2 3 4 5 6 7 8 9 10 11 12 13 14 15 16 17 18 19 20 21 22 23 24 25 26 27 28 29 30 31 32 33 34 35 36 37 38 39 40 41 42 43 44 45 46 47 48 49 50

000
ASUS45 KCYS 230210
RWRWY

WYOMING REGIONAL WEATHER ROUNDUP
NATIONAL WEATHER SERVICE CHEYENNE WY
800 PM MDT TUE JUL 22 2014

NOTE:  "FAIR" INDICATES FEW OR NO CLOUDS BELOW 12,000 FEET
WITH NO SIGNIFICANT WEATHER AND/OR OBSTRUCTIONS TO VISIBILITY.

WYZ001-230300-
YELLOWSTONE NATIONAL PARK

CITY           SKY/WX    TMP DP  RH WIND       PRES   REMARKS
LK YELLOWSTONE   N/A     71  41  33 CALM      30.47F
W YELLOWSTONE  NOT AVBL

$$
WYZ002>013-054>058-071-098>099-230300-
NORTHERN WYOMING

CITY           SKY/WX    TMP DP  RH WIND       PRES   REMARKS
JACKSON        CLEAR     81  37  21 CALM      30.33S
CODY           FAIR      82  48  30 NE7       30.21S
GREYBULL       FAIR      94  36  13 S3        30.08F
WORLAND        FAIR      93  45  19 CALM      30.10S
SHERIDAN       FAIR      80  56  43 W5        30.14F
BUFFALO        FAIR      83  49  30 NW10      30.24S
GILLETTE       FAIR      76  57  51 SE13      30.20R
HULETT         FAIR      73  61  64 MISG      30.21
NEWCASTLE      FAIR      72  54  53 MISG      30.20

$$
WYZ014>020-022>026-101>103-230300-
CENTRAL WYOMING

CITY           SKY/WX    TMP DP  RH WIND       PRES   REMARKS
BIG PINEY      FAIR      81  32  17 W6        30.38S
PINEDALE       FAIR      79  32  18 N6        30.40R
DUBOIS         FAIR      77  28  16 W6        30.39S
LANDER         FAIR      89  32  13 CALM      30.22S
RIVERTON       FAIR      87  39  18 NE7       30.24R
CASPER         FAIR      87  36  16 E7        30.22S
DOUGLAS        FAIR      86  52  30 S13       30.23S

$$
WYZ021-027>030-104>119-230300-
SOUTHERN WYOMING

CITY           SKY/WX    TMP DP  RH WIND       PRES   REMARKS
EVANSTON       FAIR      84  33  16 W5        30.36R
KEMMERER       FAIR     N/A N/A N/A NW3       30.39S
ROCK SPRINGS   FAIR      86  24  10 NW6       30.34S
DIXON          FAIR      88  25  10 NE3       30.35S
RAWLINS        FAIR      86  21   9 NW3       30.35S
SARATOGA       FAIR      84  28  13 CALM      30.39S
LARAMIE        FAIR      75  47  36 SE14      30.42S
CHEYENNE       FAIR      79  52  38 S9        30.36F
TORRINGTON     FAIR      84  58  40 SE15      30.17F
PINE BLUFFS    FAIR      82  52  34 SE6       30.29F

$$



USA.gov is the U.S. government's official web portal to all federal, state and local government web resources and services.